Regional Weather Roundup
Issued by NWS Upton, NY

Current Version | Previous Version | Text Only | Print | Product List | Glossary Off
Versions: 1 2 3 4 5 6 7 8 9 10 11 12 13 14 15 16 17 18 19 20 21 22 23 24 25 26 27 28 29 30 31 32 33 34 35 36 37 38 39 40 41 42 43 44 45 46 47 48 49 50
000 ASUS41 KOKX 211205 RWROKX REGIONAL WEATHER ROUNDUP NATIONAL WEATHER SERVICE NEW YORK NY 700 AM EST SUN DEC 21 2014 NOTE: "FAIR" INDICATES FEW OR NO CLOUDS BELOW 12,000 FEET WITH NO SIGNIFICANT WEATHER AND/OR OBSTRUCTIONS TO VISIBILITY. NYZ071-072-176-178-NJZ106-104-211300- NEW YORK CITY METRO AREA CITY SKY/WX TMP DP RH WIND PRES REMARKS CENTRAL PARK CLOUDY 31 24 75 NW5 30.31R WCI 26 LAGUARDIA APRT CLOUDY 32 25 75 N7 30.30R WCI 26 KENNEDY INTL CLOUDY 34 24 67 N6 30.31R WCI 29 NEWARK/LIBERTY CLOUDY 32 25 75 NW7 30.30R WCI 26 BRNX BOT. GARD N/A N/A N/A N/A N8 30.30S TETERBORO CLOUDY 31 25 78 NW6 30.30R WCI 25 $$ NYZ177-179-078>081-211300- LONG ISLAND NEW YORK CITY SKY/WX TMP DP RH WIND PRES REMARKS FARMINGDALE CLOUDY 33 25 72 NW3 30.29R ISLIP CLOUDY 33 26 75 NW6 30.26S WCI 28 SHIRLEY CLOUDY 33 29 85 W3 30.28R WESTHAMPTON CLOUDY 33 30 88 NW5 30.29R FOG WCI 29 MONTAUK POINT N/A 40 37 89 NE8 30.25R WCI 34 $$ NYZ052-065-067-211300- HUDSON VALLEY CITY SKY/WX TMP DP RH WIND PRES REMARKS WHITE PLAINS CLOUDY 30 24 78 NW8 30.27R WCI 22 NEWBURGH CLOUDY 27 27 100 CALM 30.30R FOG MONTGOMERY CLOUDY 28 25 88 N5 30.29R WCI 23 POUGHKEEPSIE CLOUDY 29 24 82 N5 30.31R WCI 24 ALBANY FLURRIES 27 20 75 NE5 30.33R WCI 22 $$ NJZ001-105-106-008-010-013-015-019>022-104-211300- NEW JERSEY CITY SKY/WX TMP DP RH WIND PRES REMARKS NEWARK/LIBERTY CLOUDY 32 25 75 NW7 30.30R WCI 26 TETERBORO CLOUDY 31 25 78 NW6 30.30R WCI 25 CALDWELL CLOUDY 30 25 81 CALM 30.30R MORRISTOWN CLOUDY 32 27 80 N5 30.30R WCI 27 SOMERVILLE CLOUDY 32 23 69 CALM 30.29R SUSSEX CLOUDY 28 25 88 NE3 30.29R ANDOVER N/A 28 25 88 NE3 30.28R TRENTON CLOUDY 30 21 69 W5 30.30R WCI 25 MILLVILLE CLOUDY 30 25 81 CALM 30.32R ATLANTIC CITY CLOUDY 28 23 81 NW3 30.32R WRIGHTSTOWN CLOUDY 30 22 74 W5 30.28R WCI 25 TOMS RIVER MOCLDY 27 25 93 W3 30.31R BELMAR MOCLDY 30 18 59 W5 30.29R WCI 25 $$ PAZ047>061-062-071-211300- EASTERN PENNSYLVANIA CITY SKY/WX TMP DP RH WIND PRES REMARKS PHILADELPHIA MOCLDY 31 22 69 NW3 30.33R ALLENTOWN CLOUDY 31 20 63 NW3 30.30R SCRANTON CLOUDY 29 20 69 N3 30.26S $$ CTZ002-004>006-009-010-012-RIZ004-006-007-MAZ004-011-015-211300- SOUTHERN NEW ENGLAND IN CT CITY SKY/WX TMP DP RH WIND PRES REMARKS BRADLEY INTL CLOUDY 31 28 89 N8 30.29R WCI 23 HARTFORD LGT SNOW 31 29 92 N10 30.30R FOG WCI 22 DANBURY CLOUDY 29 24 82 NW3 30.28R WTRBRY/OXFORD CLOUDY 30 21 69 NE8 30.26R WCI 23 BRIDGEPORT CLOUDY 34 30 85 N5 30.29R WCI 30 MERIDEN CLOUDY 32 28 85 N6 30.29S FOG WCI 26 NEW HAVEN CLOUDY 35 29 78 N12 30.28R WCI 27 CHESTER LGT SNOW 32 30 93 N6 30.26S WCI 26 GROTON CLOUDY 32 32 100 N9 30.26R WCI 24 WILLIMANTIC CLOUDY 33 27 78 NE7 30.28R WCI 27 IN RI CITY SKY/WX TMP DP RH WIND PRES REMARKS PROVIDENCE DRIZZLE 33 31 92 N8 30.28S WCI 26 BLOCK ISLAND CLOUDY 39 34 81 E15 30.24R WCI 31 WESTERLY CLOUDY 35 33 92 NE7 30.27R WCI 29 IN MA CITY SKY/WX TMP DP RH WIND PRES REMARKS BOSTON FLURRIES 31 27 85 N12 30.31R WCI 22 WORCESTER LGT SNOW 26 25 96 NE7 30.26R FOG WCI 18 WESTFIELD LGT SNOW 31 28 89 N7 30.29R FOG WCI 24 PROVINCETOWN CLOUDY 39 34 81 NE9 30.29R WCI 33 NANTUCKET PTCLDY 39 34 82 NE8 30.25R WCI 33 $$ ANZ330-335-338-340-345-350-353-355-211300- COASTAL MARINE OBSERVATIONS STATION/POSITION TIME SKY/WX TEMP WIND PRES VSBY WAVE AIR SEA DIR/SP/G HT/PER (UTC) (F) (DEG/KT/KT) (MB) (MI) (FT/S) NY HARB ENTRANCE 1200 35 48 300/ 10/ 14 1025.9 1/11 4S FIRE IS 1200 46 N/A 1/10 20S FIRE ISLAND 1100 37 49 1025.2 1/ 5 23SW MTP 1200 N/A 3/ 5 HUDSON CANYON 1200 39 55 310/ 8/ 12 1024.6 2/10 EXECUTION ROCKS 1200 33 41 310/ 8/ 10 N/A WESTERN LI SOUND 1100 32 350/ 6/ 8 N/A 0 CENTRAL LI SOUND 1200 33 44 10/ 10/ 14 N/A 1/ 2 EASTERN LI SOUND NOT AVBL ROBBINS REEF 1200 31 CALM 1024.8 $$ >>>>>>>>>>>>>>>>>>>>>>>>>>>> KEY <<<<<<<<<<<<<<<<<<<<<<<<<<< > < > SKY/WX - SKY CONDITION/PRESENT WEATHER < > TMP - TEMPERATURE IN FAHRENHEIT < > DP - DEWPOINT IN FAHRENHEIT < > RH - RELATIVE HUMIDITY IN PERCENT < > WIND - DIRECTION AND SPEED IN MPH < > PRES - MEAN SEA LEVEL PRESSURE IN INCHES OF HG < > WCI - WIND CHILL INDEX < > VSB - VISIBILITY IN MILES < > HX - HEAT INDEX < > TC - TEMPERATURE IN CELSIUS < > VRB - VARIABLE WIND DIRECTION < > < >>>>>>>>>>>>>>>>>>>>>>>>>>>> KEY <<<<<<<<<<<<<<<<<<<<<<<<<<<

USA.gov is the U.S. government's official web portal to all federal, state and local government web resources and services.